Weather Roundup
Issued by NWS

Home | Current Version | Previous Version | Graphics & Text | Print | Product List | Glossary Off
Versions: 1 2 3 4 5 6 7 8 9 10 11 12 13 14 15 16 17 18 19 20 21 22 23 24 25 26 27 28 29 30 31 32 33 34 35 36 37 38 39 40 41 42 43 44 45 46 47 48 49 50

000
NZUS93 KARX 241410
HRRWXR

CURRENT HOURLY OBSERVATIONS ACROSS
MUCH OF THE UPPER MISSISSIPPI VALLEY
NATIONAL WEATHER SERVICE LA CROSSE WI
900 AM CDT SUN MAY 24 2015


...SOUTHEAST MINNESOTA...


CITY           SKY/WX    TMP DP  RH WIND       PRES   REMARKS
ROCHESTER      LGT RAIN  60  55  83 SE12      30.08S
ROCHESTER/MAYO CLOUDY    60  53  78 SE7       30.07S
WINONA         LGT RAIN  61  54  77 SE6       30.09R
AUSTIN         CLOUDY    61  55  82 E10       30.04F
ALBERT LEA     LGT RAIN  61  57  88 E12       30.01F
DODGE CENTER   LGT RAIN  61  55  82 SE8       30.06S
PRESTON        DRIZZLE   58  54  85 SE8       30.08F
OWATONNA       CLOUDY    61  55  82 E10       30.02F
FARIBAULT      LGT RAIN  61  55  82 E5        30.03F
$$

...ELSEWHERE IN MINNESOTA...


CITY           SKY/WX    TMP DP  RH WIND       PRES   REMARKS
MINNEAPOLIS    CLOUDY    63  51  65 E8        30.05F
INTNL FALLS    SUNNY     66  47  50 NW5       30.08F
DULUTH         PTSUNNY   65  45  48 VRB3      30.11S
RED WING       CLOUDY    64  50  59 SE6       30.05F
REDWOOD FALLS  LGT RAIN  59  54  83 E5        29.99F
MANKATO        CLOUDY    61  54  77 E8        30.01F
WORTHINGTON    CLOUDY    59  54  82 E15       29.97F
FAIRMONT       CLOUDY    61  54  77 E14       29.98F
$$

...SOUTHWEST WISCONSIN...


CITY           SKY/WX    TMP DP  RH WIND       PRES   REMARKS
LA CROSSE      LGT RAIN  61  54  77 S10       30.11R
PRAIRIE DU CHI LGT RAIN  59  55  86 E7        30.11F
BOSCOBEL       LGT RAIN  61  55  81 VRB5      30.14R
LONE ROCK      LGT RAIN  59  55  87 E5        30.15R
PLATTEVILLE    CLOUDY    58  56  92 E6        30.14S
FORT MC COY    RAIN      62  50  66 S13G20    30.12R
CAMP DOUGLAS   CLOUDY    62  58  86 S6        30.11R
VIROQUA        CLOUDY    58  53  84 SE7       30.13R
WIS DELLS      RAIN      58  53  82 CALM      30.14S
$$

...ELSEWHERE IN WISCONSIN...


CITY           SKY/WX    TMP DP  RH WIND       PRES   REMARKS
MILWAUKEE      CLOUDY    65  50  58 S8        30.17S
MADISON        LGT RAIN  63  53  70 S7        30.15R
GREEN BAY      CLOUDY    65  48  54 S3        30.14F
EAU CLAIRE     CLOUDY    64  47  53 E3        30.08S
BLACK RVR FLS  PTSUNNY   60  51  73 CALM      30.11R
MEDFORD        CLOUDY    63  50  64 CALM      30.13S
WAUSAU         CLOUDY    64  50  60 SE3       30.12S
WIS RAPIDS     CLOUDY    65  47  52 S5        30.13F
MARSHFIELD     CLOUDY    66  48  52 SE5       30.12S
RICE LAKE      CLOUDY    64  47  53 E6        30.10F
$$

...NORTHEAST IOWA...


CITY           SKY/WX    TMP DP  RH WIND       PRES   REMARKS
DECORAH        CLOUDY    57  55  94 SE9G15    30.08F FOG
MASON CITY     LGT RAIN  59  57  93 SE17      30.04S
CHARLES CITY   CLOUDY    59  59 100 SE15      30.05S FOG
OELWEIN        CLOUDY    57  57 100 SE17      30.07F FOG
$$

...ELSEWHERE IN IOWA...


CITY           SKY/WX    TMP DP  RH WIND       PRES   REMARKS
DES MOINES     CLOUDY    63  59  87 SE17G23   29.92F
IOWA CITY      RAIN      59  58  96 E8        30.06F FOG
FORT DODGE     CLOUDY    57  55  94 E14       29.95F
$$

...NORTHERN ILLINOIS...


CITY           SKY/WX    TMP DP  RH WIND       PRES   REMARKS
CHICAGO-OHARE  CLOUDY    64  53  67 E3        30.17F
CHICAGO-MIDWAY LGT RAIN  64  56  75 SE9       30.18S
MOLINE         CLOUDY    60  57  89 E10       30.07F
ROCKFORD       LGT RAIN  63  54  72 NE3       30.17R
PEORIA         CLOUDY    70  54  56 SE7       30.09F
$$

NOTE: "FAIR" INDICATES FEW OR NO CLOUDS BELOW 12,000 FEET WITH NO
SIGNIFICANT WEATHER AND/OR OBSTRUCTIONS TO VISIBILITY. WIND
SPEEDS ARE IN MILES-PER-HOUR.



USA.gov is the U.S. government's official web portal to all federal, state and local government web resources and services.